Regional Weather Roundup
Issued by NWS

Home | Current Version | Previous Version | Graphics & Text | Print | Product List | Glossary On
Versions: 1 2 3 4 5 6 7 8 9 10 11 12 13 14 15 16 17 18 19 20 21 22 23 24 25 26 27 28 29 30 31 32 33 34 35 36 37 38 39 40 41 42 43 44 45 46 47 48 49 50
000
ASUS43 KIND 030309
RWRIN

WEATHER ROUNDUP FOR INDIANA
NATIONAL WEATHER SERVICE INDIANAPOLIS IN
1000 PM EST MON MAR 02 2015

NOTE: "FAIR" INDICATES FEW OR NO CLOUDS BELOW 12,000 FEET WITH NO
SIGNIFICANT WEATHER AND/OR OBSTRUCTIONS TO VISIBILITY.

* - STATION DOES NOT REPORT WEATHER SUCH AS PRECIPITATION OR FOG.

+ - STATION NOT QUALITY CONTROLLED BY THE NATIONAL WEATHER SERVICE.
    USE DATA WITH CAUTION...ESPECIALLY DEWPOINT AND RELATIVE
    HUMIDITY OBSERVATIONS.

INZ001>003-010>013-019-020-030400-
NORTHWEST INDIANA

CITY           SKY/WX    TMP DP  RH WIND       PRES   REMARKS
GARY /AIRPORT/ CLOUDY    28  11  48 S8        30.35F WCI  20
KNOX *+          N/A     27   3  36 S6        30.35F WCI  20
LA PORTE +     CLOUDY    27  17  66 S6        30.35F WCI  20
MICHIGAN CITY+ CLOUDY    27  10  50 S7        30.36S WCI  19
MONTICELLO +   CLOUDY    25  15  65 S3        30.36F
RENSSELAER +   CLOUDY    27  21  80 SE3       30.35F
VALPARAISO     CLOUDY    24  16  71 S3        30.35F

$$

LMZ046-743>745-030400-
SOUTHERN LAKE MICHIGAN

STATION/POSITION TIME  TEMP WIND        PRES
                       AIR  DIR/SP/G
                 (UTC) (F)  (DEG/KT/KT) (MB)
MICHIGAN CITY    0300   26  160/  7/ 10   N/A

$$

INZ004-005-014>016-021>024-030400-
NORTH CENTRAL INDIANA

CITY           SKY/WX    TMP DP  RH WIND       PRES   REMARKS
GOSHEN         CLOUDY    23  14  68 S6        30.35F WCI  16
LOGANSPORT +   CLOUDY    23  18  80 S5        30.37F WCI  17
PERU/GRISSOM   CLOUDY    22  14  72 SE5       30.34F WCI  16
ROCHESTER +    PTCLDY    28  18  64 S5        30.36F WCI  23
SOUTH BEND     CLOUDY    26  15  63 S8        30.35F WCI  18
WARSAW +       MOCLDY    27  14  59 S6        30.35F WCI  20

$$

INZ006>009-017-018-025>027-030400-
NORTHEAST INDIANA

CITY           SKY/WX    TMP DP  RH WIND       PRES   REMARKS
ANGOLA *+      MOCLDY    21  12  68 S5        30.34S WCI  15
AUBURN +       MOCLDY    23  14  68 CALM      30.37S
FORT WAYNE     CLOUDY    21  14  74 S5        30.38F WCI  15
HUNTINGTON +   CLOUDY    23  11  60 CALM      30.37S

$$

INZ028-029-035-036-043>045-051>053-030400-
WEST CENTRAL INDIANA

CITY           SKY/WX    TMP DP  RH WIND       PRES   REMARKS
CRAWFORDSVL +  CLOUDY    22  10  61 E7        30.34F WCI  13
GREENCASTLE +  CLOUDY    27  12  54 E7        30.35F WCI  19
LAFAYETTE      CLOUDY    23  14  68 E8        30.36F WCI  14
TERRE HAUTE    CLOUDY    24  16  71 E7        30.34F WCI  16

$$

INZ030>032-037>040-046>048-054>057-064-065-030400-
CENTRAL INDIANA

CITY           SKY/WX    TMP DP  RH WIND       PRES   REMARKS
CP ATTERBURY + MOCLDY    27  16  63 CALM      30.37F
COLUMBUS       PTCLDY    21  16  79 N3        30.37F
FRANKFORT +    CLOUDY    19  13  79 E5        30.37F WCI  12
GREENWOOD *+   CLOUDY    25  12  58 E5        30.37S WCI  19
INDIANAPOLIS   CLOUDY    26  14  60 E5        30.35F WCI  20
-EAGLE CREEK   CLOUDY    26  14  60 E6        30.35F WCI  19
KOKOMO *+      MOCLDY    19  12  73 S5        30.36F WCI  13
MARION +       MOCLDY    23  13  66 SE6       30.37F WCI  15
MT COMFORT *+  CLOUDY    25   9  50 E6        30.37S WCI  18
SHELBYVILLE    CLOUDY    26  16  65 E7        30.36F WCI  18
ZIONSVILLE +   CLOUDY    25  13  62 E5        30.36F WCI  19

$$

INZ033-034-041-042-049-050-058-059-030400-
EAST CENTRAL INDIANA

CITY           SKY/WX    TMP DP  RH WIND       PRES   REMARKS
MUNCIE         PTCLDY    24  14  65 S5        30.37S WCI  18

$$

INZ060-061-067>069-081>083-085>088-030400-
SOUTHWEST INDIANA

CITY           SKY/WX    TMP DP  RH WIND       PRES   REMARKS
EVANSVILLE     CLOUDY    32  20  61 NE7       30.33F WCI  26
HUNTINGBURG *+ CLOUDY    28  18  64 NE3       30.35F
WASHINGTON +   CLOUDY    26  19  73 SE5       30.33F WCI  21

$$

INZ062-063-066-070>080-084-089>092-030400-
SOUTH CENTRAL AND SOUTHEAST INDIANA

CITY           SKY/WX    TMP DP  RH WIND       PRES   REMARKS
BLOOMINGTON    MOCLDY    28  14  55 E6        30.33F WCI  22
NORTH VERNON + PTCLDY    30  16  55 E5        30.36F WCI  25
SEYMOUR +      MOCLDY    28  18  64 NE3       30.36F

$$



USA.gov is the U.S. government's official web portal to all federal, state and local government web resources and services.